| time (UTC) | temp F | wind direction | speed MPH | gust MPH | rain 1hr in | rain 24hr in | rain mn in | humidity % | barometer mb |
| 20260502204458 | 66 | 133 | 1.0 | 4.0 | 0.00 | 0.13 | 0.00 | 93 | 1015.4 |
| 20260502201458 | 66 | 139 | 2.0 | 4.0 | 0.00 | 0.13 | 0.00 | 92 | 1015.1 |
| 20260502194458 | 66 | 143 | 2.0 | 4.0 | 0.00 | 0.13 | 0.00 | 92 | 1014.9 |
| 20260502191458 | 66 | 142 | 2.0 | 4.0 | 0.00 | 0.13 | 0.00 | 90 | 1014.7 |
| 20260502184458 | 67 | 139 | 1.0 | 4.0 | 0.00 | 0.13 | 0.00 | 88 | 1014.8 |
| 20260502181458 | 68 | 137 | 1.0 | 2.0 | 0.00 | 0.15 | 0.00 | 87 | 1014.8 |
| 20260502161458 | 70 | 130 | 3.0 | 7.0 | 0.00 | 0.17 | 0.00 | 86 | 1015.0 |
| 20260502151458 | 71 | 127 | 2.0 | 4.0 | 0.00 | 0.17 | 0.00 | 87 | 1015.2 |
| 20260502121457 | 71 | 117 | 2.0 | 5.0 | 0.00 | 0.17 | 0.17 | 91 | 1016.1 |
| 20260502114458 | 71 | 121 | 2.0 | 4.0 | 0.00 | 0.17 | 0.17 | 92 | 1016.2 |
| 20260502111458 | 71 | 132 | 2.0 | 6.0 | 0.00 | 0.17 | 0.17 | 91 | 1016.3 |
| 20260502104458 | 71 | 111 | 2.0 | 4.0 | 0.00 | 0.17 | 0.17 | 92 | 1016.2 |
| 20260502101458 | 70 | 112 | 3.0 | 5.0 | 0.00 | 0.17 | 0.17 | 92 | 1016.0 |
| 20260502091458 | 71 | 126 | 2.0 | 4.0 | 0.00 | 0.17 | 0.17 | 92 | 1015.2 |
| 20260502071458 | 72 | 108 | 4.0 | 9.0 | 0.02 | 0.13 | 0.13 | 89 | 1014.8 |
| 20260502064458 | 75 | 101 | 4.0 | 13.0 | 0.00 | 0.11 | 0.10 | 82 | 1014.4 |
| 20260502061458 | 76 | 128 | 4.0 | 10.0 | 0.00 | 0.11 | 0.10 | 80 | 1014.2 |
| 20260502054458 | 76 | 109 | 4.0 | 8.0 | 0.00 | 0.11 | 0.10 | 80 | 1014.0 |
| 20260502051458 | 77 | 116 | 4.0 | 17.0 | 0.00 | 0.11 | 0.10 | 79 | 1014.0 |
| 20260502044457 | 77 | 104 | 5.0 | 11.0 | 0.00 | 0.11 | 0.10 | 79 | 1014.3 |
| 20260502041458 | 76 | 137 | 4.0 | 9.0 | 0.00 | 0.11 | 0.10 | 83 | 1014.4 |
| 20260502034457 | 75 | 130 | 3.0 | 7.0 | 0.00 | 0.11 | 0.10 | 83 | 1014.6 |
| 20260502031457 | 77 | 118 | 3.0 | 9.0 | 0.00 | 0.11 | 0.10 | 81 | 1014.7 |
| 20260502024458 | 75 | 107 | 4.0 | 12.0 | 0.02 | 0.11 | 0.10 | 88 | 1015.0 |
| 20260502021457 | 75 | 106 | 5.0 | 13.0 | 0.03 | 0.08 | 0.07 | 84 | 1015.7 |
| 20260502014457 | 72 | 114 | 3.0 | 9.0 | 0.03 | 0.08 | 0.07 | 92 | 1015.8 |
| 20260502011457 | 73 | 94 | 4.0 | 9.0 | 0.00 | 0.05 | 0.04 | 86 | 1016.3 |